Погода в Клине

Погода в Клине : погода сейчас, прогноз погоды и архив. Всё, что Вы хотите узнать о погоде в Клине!

Хотите узнать прогноз погоды в Клине? Тогда Вам сюда: Погода в Клине

Поиск расширенной информации на нашем сайте:

Другие новости

Новости СМИ2

Главная страница сайта

Новости сайта

03.07.2017

Напоминаем, что на нашем специализированном сайте Метеоцентр.Азия вы можете получить высокодетализированные автоматические прогнозы погоды по пунктам России, СНГ и мира в авиационном формате (включающие направление и скорость ветра, видимость, явления погоды, количество и форму облачности, нижнюю и верхнюю границу облачности).


Погода в Клине - сегодня

Время (UTC), дата Ветер
(°,м/с) 
Видим.   Явления Облачность Т
(°С)
Тd
(°С)
f(%) Тe
(°С)
Pmin
(гПа)
dP
(гПа)
Po
(мм)
O2
(г/м3)
Тmin Tmax R s Состояние
почвы
18 18.01.18 140 (ЮВ) 4000 м  слаб. снег  10/10 600 м 
[Ns]
-5.5 -6.9 90 -5  1009.8  0.2  742  306    -5.4  0.9     
21 18.01.18 150 (ЮВ) 4000 м  слаб. снег  10/10 600 м 
[Ns]
-4.1 -5.2 92 -5  1010.2  0.5  742  304           
00 19.01.18 140 (ЮВ) 4000 м  слаб. снег  10/10 600 м 
[Ns]
-3.3 -4.4 92 -4  1009.6  -0.5  742  303           
03 19.01.18 150 (ЮВ) 2{10}  10 км  {снег}  10/10 600 м 
[Sc]
-2.2 -4.7 83 -3  1010  0.5  742  302  -6.3       
06 19.01.18 150 (ЮВ) 4{10}  10 км  {снег}  10/10 600 м 
[Sc]
-5.1 -9.8 70 -8  1011.3  1.1  743  306  -5.5    12  равномерный
сухой снег
100% 
09 19.01.18 140 (ЮВ) 10 км    10/8 600 м средняя 
[Sc|Ac trans]
-6.1 -12.7 60 -9  1013.1  1.7  744  308           
12 19.01.18 130 (ЮВ) 10 км    10/4 600 м средняя 
[Sc|Ac As]
-7.3 -11.8 70 -9  1013.4  0.2  744  309           
15 19.01.18 130 (ЮВ) 10 км    10/5 600 м средняя 
[Sc|Ac As]
-7.6 -12.7 67 -10  1013.6  0.1  744  310           
18 19.01.18 130 (ЮВ) 2{11}  10 км    10/10 600 м 
[Sc]
-7.4 -13.8 60 -9  1013.9  0.3  744  309    -4.8       
21 19.01.18 120 (ЮВ) 10 км    10/10 600 м 
[Sc]
-8.1 -14.7 59 -10  1014.3  0.3  745  310           
00 20.01.18 120 (ЮВ) 10 км    10/10 600 м 
[Sc]
-9.1 -15.3 61 -11  1013.7  -0.6  744  311           
03 20.01.18 120 (ЮВ) 4000 м  слаб. снег  10/10 600 м 
[Ns]
-10.7 -13.2 82 -13  1013.3  -0.5  744  313  -10.7    0.4     
06 20.01.18 120 (ЮВ) 4000 м  слаб. снег  10/10 600 м 
[Frnb|Ns]
-10.9 -13.1 84 -13  1012.5  -0.8  743  313  -10.9    13  равномерный
сухой снег
100% 
09 20.01.18 110 (В) 4000 м  слаб. снег  10/10 600 м 
[Frnb|Ns]
-9.8 -12.1 83 -12  1012.1  -0.2  743  312           
12 20.01.18 100 (В) 4000 м  слаб. снег  10/10 600 м 
[Frnb|Ns]
-9.2 -11.1 86 -9  1011.2  -0.9  742  311           
15 20.01.18 080 (В) 4000 м  слаб. снег  10/10 600 м 
[Frnb|Ns]
-9.2 -10.9 87 -9  1010.5  -0.6  742  310         
18 20.01.18 080 (В) 4000 м  слаб. снег  10/10 600 м 
[Frnb|Ns]
-9 -10.6 88 -9  1010  -0.5  741  310    -9     
21 20.01.18 110 (В) 4000 м  слаб. снег  10/10 600 м 
[Ns]
-8.4 -10 88 -8  1009.8  -0.2  741  309           
00 21.01.18 050 (СВ) 4000 м  слаб. снег  10/10 600 м 
[Ns]
-8.7 -10.3 88 -8  1009.8  741  310           
03 21.01.18 050 (СВ) 4000 м    10/10 600 м 
[Ns]
-9.1 -10.5 90 -9  1009.6  -0.2  741  310  -9.2       
06 21.01.18 тихо ()   4000 м  слаб. снег  10/10 600 м 
[Ns]
-8.8 -10.3 89 -9  1010.2  0.3  741  310  -9.4    14  равномерный
сухой снег
100% 
09 21.01.18 тихо ()   10 км  {снег}  10/10 600 м 
[Ns]
-7.4 -8.7 90 -7  1010.3  0.3  742  308           
12 21.01.18 тихо ()   4000 м  слаб. снег  10/10 600 м 
[Ns]
-6.2 -8.1 86 -6  1010.7  0.5  742  307           
15 21.01.18 320 (СЗ) 4000 м  слаб. снег  10/10 600 м 
[Ns]
-6.4 -7.7 90 -6  1010.6  0.2  742  307         
18 21.01.18 300 (СЗ) 4000 м  слаб. снег  10/10 600 м 
[Ns]
-7.1 -8.5 90 -7  1010.6  -0.1  742  308    -6.2     
Время (UTC), дата Ветер
(°,м/с) 
Видим.   Явления Облачность Т
(°С)
Тd
(°С)
f(%) Тe
(°С)
Pmin
(гПа)
dP
(гПа)
Po
(мм)
O2
(г/м3)
Тmin Tmax R s Состояние
почвы

Для получения пояснительной информации подведите курсор к названию столбца.

ПОГОДА в Клине - архив

Всё, что Вы хотите узнать о погоде в Клине - удобно и подробно!

Выберите нужную дату (начиная с 1 января 2015* года) и нажмите кнопку "Найти".
Будут отображены архивные сводки погоды по пункту Клин, начиная с указанной даты.


Отображать данные в формате CSV (для использования в таблицах Excel)


Внимание! Наш архив погоды предназначен исключительно для личного некоммерческого использования в познавательных целях. Если Вам необходимы официальные справки о состоянии погоды (для производственных, юридических, коммерческих и т.п. целей), обращайтесь в органы Росгидромета.

*Примечание: данная дата относится к архиву по метеостанциям СССР (Россия, СНГ, Балтия).
Архив по метеостанциям Зарубежной Европы и Азии (кроме Китая) хранится 10 дней, по другим регионам земного шара (Китай, Африка, Америка, Австралия, Океания) - 1 день.

Клин - район местоположения метеостанции


Название, широта, долгота, высота метеостанции:
Клин 56.3°ш. 36.8°д. 167 м над ур. моря [Российская Федерация]

Дополнительная информация

В oтличие oт бoльшинства пoгoдных сайтoв мы публикуем пoдрoбную метеoинфoрмацию в детальнoм прoфессиoнальнoм фoрмате.

Характеристики температуры и влажнoсти вoздуха измеряются на высoте 2 м в тени вдали oт зданий и деревьев.
Скoрoсть ветра измеряется на высoте 10 м (на урoвне рoста челoвека скoрoсть ветра ниже в 1.5-2 раза). Если метеoстанция нахoдится в гoрoде или в лесу, тo скoрoсть ветра занижена на 2-4 м/с пo сравнению с oткрытым местoм. Скoрoсть ветра над акватoриями крупных рек и oзёр, а также на вершинах хoлмoв на 2-5 м/с выше, чем в oбычных услoвиях.
Атмoсфернoе давление в разных тoчках местнoсти мoжет значительнo oтличаться oт давления на метеoстанции, в зависимoсти oт услoвий рельефа (при пoдъёме на 10 м давление пoнижается примернo на 1 мм рт.ст.).